Regional Weather Roundup
Issued by NWS Green Bay, WI

Home | Current Version | Previous Version | Graphics & Text | Print | Product List | Glossary Off
Versions: 1 2 3 4 5 6 7 8 9 10 11 12 13 14 15 16 17 18 19 20 21 22 23 24 25 26 27 28 29 30 31 32 33 34 35 36 37 38 39 40 41 42 43 44 45 46 47 48 49 50

000
ASUS43 KGRB 281901
RWRGRB

NORTH-CENTRAL AND NORTHEAST WISCONSIN REGIONAL WEATHER ROUNDUP
NATIONAL WEATHER SERVICE GREEN BAY WI
200 PM CDT SUN MAY 28 2017

WIZ005-009-010>012-018-019-282000-
NORTH CENTRAL WISCONSIN

CITY           SKY/WX    TMP DP  RH WIND       PRES   REMARKS
IRONWOOD       CLOUDY    57  52  83 N3        29.65F
MANITOWISH WTR NOT AVBL
ARBOR VITAE    NOT AVBL
EAGLE RIVER    NOT AVBL
LAND O LAKES   NOT AVBL
RHINELANDER    PTSUNNY   64  57  78 SW7       29.65S
PHILLIPS       NOT AVBL
ANTIGO         NOT AVBL
TOMAHAWK       NOT AVBL
MERRILL        NOT AVBL
$$

WIZ013-073-282000-
NORTHEAST WISCONSIN

CITY           SKY/WX    TMP DP  RH WIND       PRES   REMARKS
IRON MOUNTAIN  MOSUNNY   71  48  43 S9        29.61F
MARINETTE      NOT AVBL
$$

WIZ017-030-035>037-045-282000-
CENTRAL WISCONSIN

CITY           SKY/WX    TMP DP  RH WIND       PRES   REMARKS
MEDFORD        NOT AVBL
WAUSAU         CLOUDY    68  51  54 SW17G25   29.64F
MOSINEE        PTSUNNY   64  57  77 SW8       29.67F
MARSHFIELD     MOSUNNY   71  47  42 W16G24    29.66F
WISC RAPIDS    MOSUNNY   73  53  49 W13       29.67F
STEVENS POINT  NOT AVBL
WAUPACA        NOT AVBL
SHAWANO        NOT AVBL
CLINTONVILLE   NOT AVBL
WAUTOMA        NOT AVBL
$$

WIZ038-039-048-051-282000-
FOX VALLEY

CITY           SKY/WX    TMP DP  RH WIND       PRES   REMARKS
NWS GREEN BAY  MOSUNNY   69  60  73 SW9       29.68F
APPLETON       PTSUNNY   68  52  56 SW10      29.69F
OSHKOSH        SUNNY     70  53  54 W9        29.69F
FOND DU LAC    SUNNY     71  54  54 W12       29.71F
$$

WIZ022-050-052-282000-
EAST CENTRAL WISCONSIN

CITY           SKY/WX    TMP DP  RH WIND       PRES   REMARKS
EPHRAIM        NOT AVBL
WASHINGTON ISL NOT AVBL
STURGEON BAY   PTSUNNY   65  57  75 S9        29.68F
MANITOWOC      NOT AVBL
SHEBOYGAN      SUNNY     69  58  67 W8        29.70F
$$

LMZ563-521-522-541>543-282000-
LAKESHORE

STATION/POSITION TIME  TEMP    WIND        PRES    VSBY  WAVE
                       AIR SEA DIR/SP/G                  HT/PER
                 (UTC) (F)     (DEG/KT/KT) (MB)    (MI)  (FT/S)
SHEBOYGAN LKSHOR 1800   58     100/  6/  6 1006.0F
KEWAUNEE LKSHORE 1830   54     170/  5/ 10 1005.4F
NORTHPORT PIER   1840   51     130/  6/  7 1005.1F
N MID LAKE BUOY  1750   46 41   80/  4/  6 1006.6F         0
CHAMBERS ISLAND  1840   61     150/  6/ 10 1004.4F
MENOMINEE LKSHOR 1830          160/ 11/ 13 1003.9F
$$



USA.gov is the U.S. government's official web portal to all federal, state and local government web resources and services.